TimeEST,TemperatureF,Dew PointF,Humidity,Sea Level PressureIn,VisibilityMPH,Wind Direction,Wind SpeedMPH,Gust SpeedMPH,PrecipitationIn,Events,Conditions,WindDirDegrees,DateUTC
1:53 AM,25.0,21.9,88,30.33,9.0,Calm,Calm,-,N/A,,Clear,0,2012-12-04 06:53:00
2:53 AM,25.0,21.9,88,30.33,10.0,Calm,Calm,-,N/A,,Clear,0,2012-12-04 07:53:00
3:53 AM,25.0,21.0,85,30.33,10.0,Calm,Calm,-,N/A,,Scattered Clouds,0,2012-12-04 08:53:00
4:01 AM,24.8,21.2,86,30.33,10.0,Calm,Calm,-,N/A,,Mostly Cloudy,0,2012-12-04 09:01:00
4:53 AM,28.0,26.1,92,30.33,10.0,Calm,Calm,-,N/A,,Overcast,0,2012-12-04 09:53:00
5:53 AM,30.0,28.0,92,30.33,10.0,Calm,Calm,-,N/A,,Overcast,0,2012-12-04 10:53:00
6:53 AM,32.0,30.0,92,30.32,9.0,Calm,Calm,-,N/A,,Overcast,0,2012-12-04 11:53:00
7:53 AM,33.1,30.9,92,30.34,7.0,Calm,Calm,-,N/A,,Overcast,0,2012-12-04 12:53:00
8:53 AM,35.1,33.1,92,30.32,8.0,Calm,Calm,-,N/A,,Overcast,0,2012-12-04 13:53:00
9:53 AM,37.0,35.1,93,30.32,8.0,Calm,Calm,-,N/A,,Overcast,0,2012-12-04 14:53:00
10:11 AM,37.4,33.8,87,30.31,10.0,Calm,Calm,-,N/A,,Overcast,0,2012-12-04 15:11:00
10:29 AM,37.4,35.6,93,30.30,7.0,Calm,Calm,-,N/A,,Overcast,0,2012-12-04 15:29:00
10:53 AM,39.0,36.0,89,30.30,8.0,Calm,Calm,-,N/A,,Overcast,0,2012-12-04 15:53:00
11:53 AM,43.0,39.0,86,30.27,10.0,Calm,Calm,-,N/A,,Overcast,0,2012-12-04 16:53:00
12:53 PM,44.1,39.9,85,30.23,10.0,Calm,Calm,-,N/A,,Overcast,0,2012-12-04 17:53:00
1:38 PM,44.6,39.2,81,30.21,10.0,Calm,Calm,-,N/A,,Overcast,0,2012-12-04 18:38:00
1:53 PM,43.0,39.0,86,30.21,10.0,Calm,Calm,-,N/A,,Overcast,0,2012-12-04 18:53:00
2:40 PM,46.4,44.6,93,30.20,5.0,Variable,4.6,-,N/A,,Overcast,0,2012-12-04 19:40:00
2:53 PM,48.0,45.0,89,30.20,4.0,SSW,3.5,-,N/A,,Overcast,200,2012-12-04 19:53:00
3:04 PM,48.2,44.6,87,30.19,2.5,SSW,5.8,-,N/A,,Overcast,200,2012-12-04 20:04:00
3:28 PM,48.2,46.4,93,30.18,4.0,South,5.8,-,N/A,,Overcast,190,2012-12-04 20:28:00
3:53 PM,48.0,46.0,93,30.18,8.0,South,6.9,-,N/A,,Overcast,180,2012-12-04 20:53:00
4:53 PM,48.9,46.0,90,30.16,10.0,Variable,5.8,-,N/A,,Overcast,0,2012-12-04 21:53:00
5:53 PM,50.0,46.9,89,30.14,10.0,Variable,6.9,-,N/A,,Overcast,0,2012-12-04 22:53:00
6:53 PM,50.0,46.9,89,30.13,4.0,South,4.6,-,N/A,,Overcast,190,2012-12-04 23:53:00
7:53 PM,50.0,48.0,93,30.10,3.0,South,5.8,-,N/A,,Overcast,180,2012-12-05 00:53:00
8:14 PM,50.0,48.2,94,30.08,2.5,South,4.6,-,N/A,,Overcast,180,2012-12-05 01:14:00
8:53 PM,51.1,48.9,92,30.06,2.0,South,5.8,-,N/A,,Overcast,190,2012-12-05 01:53:00
9:53 PM,51.1,48.9,92,30.04,2.5,SSW,8.1,-,0.01,,Overcast,200,2012-12-05 02:53:00
10:44 PM,51.8,48.2,88,30.01,2.5,SSW,8.1,-,0.01,,Overcast,200,2012-12-05 03:44:00
10:53 PM,52.0,48.9,89,30.01,2.5,South,9.2,-,0.01,,Overcast,190,2012-12-05 03:53:00
11:13 PM,51.8,48.2,88,30.00,3.0,Variable,6.9,-,N/A,,Overcast,0,2012-12-05 04:13:00
11:53 PM,52.0,50.0,93,29.98,5.0,SSW,10.4,20.7,N/A,,Overcast,200,2012-12-05 04:53:00